sat.trackr.live / text

‹ back to catalog

TRANSPORTER-16 OBJECT AA

NORAD 68440 · 2026-067AA

PAYLOAD ACTIVE UNKNOWN

§ Identity

Operator
Country
TBD
Launch date
2026-03-30
Launch site
AFWTR
Launch vehicle
Mass (kg)
RCS (m²)

External: N2YO · Heavens-Above · Gunter

§ Orbital elements

Epoch: 2026-05-24T20:39:14.501664Z

Period
94.78 min
Inclination
97.4497°
Eccentricity
0.0005161
Mean motion
15.19243606 rev/d
Perigee alt
504.6 km
Apogee alt
511.7 km
Semi-major
6,886.3 km
B*
8.1948e-4
RAAN
103.6774°
Arg perigee
116.8470°
Mean anomaly
243.3293°
Rev number
840

§ Raw data

TRANSPORTER-16 OBJECT AA1 68440U 26067AA  26144.86058451  .00017233  00000+0  81948-3 0  99952 68440  97.4497 103.6774 0005161 116.8470 243.3293 15.19243606  8407

JSON: /api/v1/satellites/68440 · /tle

For live sub-satellite position, see the globe view (requires WebGL).

§ Visibility from observer

Set your observer location to see the next 7 days of passes ≥ 10°. The values pass through the URL so the page stays shareable.

No JS? Fill the form by hand. The geolocation button needs JavaScript.